[[{"header":{"parameterUnit":"m.s-1","parameterCategory":1,"la1":30.2991,"la2":30.254,"lo1":-89.0895,"lo2":-89.0444,"dy":0.0017,"dx":0.0017,"nx":28,"ny":28,"refTime":"2026-02-16T03:00:00:Z","depth":0,"parameterNumber":2,"parameterNumberName":"U-component_of_WINDS"},"data":[0,0,0,0,0,0,0,0,0,0,0,0,0,0,0,0,0,0,0,0,0,0,0,0,0,0,0,0,0,0,0,0,0,0,0,0,0,0,0,0,0,0,0,0,0,0,0,0,0,0,0,0,0,0,0,0,0,0,-0.0589,-0.059,0,-0.0685,-0.0686,-0.0687,-0.0702,-0.0701,-0.07,-0.07,-0.0803,-0.0807,-0.081,0,0,0,0,0,0,0,0,0,0,0,0,0,-0.0426,-0.0429,-0.0589,-0.059,-0.0591,-0.0685,-0.0686,-0.0687,-0.0702,-0.0701,-0.07,-0.0699,-0.0802,-0.0806,-0.0811,0,0,0,0,0,0,0,0,0,0,0,0,0,-0.0507,-0.043,-0.0589,-0.061,-0.0613,-0.0685,-0.0686,-0.0688,-0.0703,-0.0701,-0.07,-0.0699,-0.0801,-0.0806,-0.0811,-0.087,0,0,-0.0828,-0.083,0,0,0,0,0,0,0,0,-0.0503,-0.0513,-0.0606,-0.0609,-0.0612,-0.068,-0.0667,-0.0749,-0.0703,-0.0669,-0.07,-0.0698,-0.0764,-0.0772,-0.0793,-0.0875,-0.0879,-0.0828,-0.0831,-0.0834,-0.0835,0,0,0,0,0,0,0,-0.0497,-0.0509,-0.0627,-0.0607,-0.0611,-0.0617,-0.0627,-0.0682,-0.0723,-0.0672,-0.0673,-0.0684,-0.0765,-0.0788,-0.0796,-0.0881,-0.0828,-0.0833,-0.0836,-0.0838,-0.1021,-0.1023,0,0,0,0,0,0,-0.0487,-0.0504,-0.0624,-0.063,-0.0553,-0.0621,-0.0632,-0.066,-0.0722,-0.073,-0.0685,-0.0684,-0.0779,-0.0789,-0.0799,-0.0876,-0.0833,-0.0839,-0.0842,-0.102,-0.1022,-0.1023,0,0,0,0,0,0,-0.0483,-0.0497,-0.062,-0.0568,-0.0584,-0.0625,-0.0656,-0.0662,-0.0685,-0.0732,-0.074,-0.07,-0.0779,-0.0792,-0.0853,-0.088,-0.0841,-0.0846,-0.1018,-0.102,-0.1023,-0.1027,0,0,0,0,0,0,-0.0478,-0.0496,-0.0517,-0.0568,-0.0586,-0.067,-0.0657,-0.0665,-0.0693,-0.0693,-0.0748,-0.0756,-0.0779,-0.0845,-0.0858,-0.0886,-0.085,-0.1016,-0.1019,-0.1022,-0.1025,-0.1029,-0.1033,0,0,0,0,0,-0.0472,-0.0514,-0.0517,-0.0532,-0.0613,-0.0671,-0.0682,-0.0706,-0.0695,-0.0718,-0.0749,-0.0754,-0.0874,-0.0851,-0.0866,-0.0896,-0.1014,-0.1018,-0.1022,-0.1023,-0.1028,-0.1033,0,0,0,0,0,0,-0.0466,-0.0521,-0.0525,-0.0584,-0.0623,-0.0674,-0.0703,-0.0711,-0.0754,-0.0753,-0.0782,-0.0794,-0.0855,-0.0881,-0.0855,-0.0959,-0.0944,-0.0951,-0.0939,-0.0945,-0.0949,-0.0943,-0.0854,0,0,0,0,0,-0.0471,-0.0512,-0.0559,-0.0607,-0.0626,-0.0661,-0.0687,-0.0702,-0.0744,-0.0761,-0.0796,-0.0838,-0.0886,-0.0917,-0.0963,-0.1028,-0.1043,-0.1057,-0.1061,-0.1064,-0.1071,-0.1112,-0.112,-0.1036,-0.1036,-0.1036,0,0,-0.0483,-0.0518,-0.0542,-0.0606,-0.0638,-0.0682,-0.0675,-0.0721,-0.0756,-0.0769,-0.0829,-0.0857,-0.0906,-0.0971,-0.1001,-0.0995,-0.1097,-0.1069,-0.1071,-0.1076,-0.1116,-0.1124,-0.1131,-0.1038,-0.1038,-0.1037,0,0,-0.0527,-0.0556,-0.0601,-0.0633,-0.0681,-0.0705,-0.0716,-0.0766,-0.0785,-0.0845,-0.0858,-0.09,-0.098,-0.1016,-0.1045,-0.1106,-0.1114,-0.112,-0.1144,-0.1183,-0.119,-0.1196,-0.1222,-0.123,-0.1126,-0.1126,-0.1126,0,-0.0536,-0.0601,-0.0623,-0.067,-0.07,-0.0713,-0.0761,-0.0792,-0.0853,-0.0875,-0.0866,-0.0969,-0.1003,-0.1079,-0.1094,-0.1115,-0.1132,-0.1115,-0.1187,-0.1193,-0.1199,-0.1224,-0.1233,-0.1127,-0.1127,-0.1127,-0.1127,0,-0.0612,-0.0657,-0.0688,-0.0746,-0.0779,-0.0826,-0.0859,-0.089,-0.0903,-0.0929,-0.0993,-0.1034,-0.1091,-0.1109,-0.1122,-0.1188,-0.1183,-0.118,-0.1166,-0.1207,-0.1232,-0.1241,-0.1128,-0.1128,-0.1127,-0.1127,0,0,-0.0654,-0.0726,-0.0737,-0.0765,-0.082,-0.0857,-0.0907,-0.0961,-0.0989,-0.1031,-0.1076,-0.1145,-0.1143,-0.1176,-0.1194,-0.1228,-0.1279,-0.1222,-0.1223,-0.1234,-0.1359,-0.1363,-0.1373,-0.1284,-0.1286,-0.1287,-0.1356,0,-0.0708,-0.0794,-0.0817,-0.0892,-0.0937,-0.0951,-0.0995,-0.1035,-0.1061,-0.1105,-0.1135,-0.1184,-0.1177,-0.1197,-0.1232,-0.1265,-0.1305,-0.126,-0.133,-0.1332,-0.1319,-0.1385,-0.1389,-0.1451,-0.1365,-0.1367,-0.1368,0,-0.0781,-0.0825,-0.0904,-0.0956,-0.0976,-0.1014,-0.1068,-0.1108,-0.1156,-0.1173,-0.1211,-0.1226,-0.1282,-0.1263,-0.1343,-0.1312,-0.1342,-0.1363,-0.1366,-0.1376,-0.1354,-0.14,-0.1471,-0.1482,-0.1382,-0.1381,-0.138,0,-0.0808,-0.0887,-0.0945,-0.0969,-0.103,-0.1058,-0.1086,-0.1132,-0.1164,-0.1212,-0.1234,-0.1287,-0.1317,-0.136,-0.1391,-0.1374,-0.147,-0.1452,-0.1488,-0.1488,-0.1509,-0.1508,-0.159,-0.1524,-0.1524,-0.1523,-0.1523,0,-0.0867,-0.0916,-0.0959,-0.0995,-0.1052,-0.1079,-0.1135,-0.1163,-0.1205,-0.1249,-0.1265,-0.1307,-0.1343,-0.1391,-0.1416,-0.1481,-0.1493,-0.1511,-0.1518,-0.1511,-0.151,-0.1533,-0.1531,-0.1526,-0.1525,-0.1525,-0.1524,0,-0.0908,-0.0938,-0.1003,-0.1057,-0.1072,-0.1111,-0.1159,-0.1197,-0.1223,-0.128,-0.1295,-0.1338,-0.1396,-0.143,-0.1503,-0.152,-0.1593,-0.1595,-0.1576,-0.158,-0.1615,-0.1613,-0.1718,-0.1735,-0.1654,-0.1654,-0.1655,0,-0.0944,-0.0982,-0.104,-0.1071,-0.1098,-0.1147,-0.118,-0.1209,-0.1244,-0.1303,-0.1335,-0.1393,-0.1441,-0.1533,-0.1573,-0.163,-0.1637,-0.167,-0.1646,-0.164,-0.1642,-0.164,-0.1646,-0.1675,-0.1675,-0.1676,-0.1676,0,-0.1007,-0.1021,-0.1067,-0.112,-0.116,-0.1203,-0.1246,-0.1271,-0.1308,-0.1347,-0.1405,-0.1443,-0.1518,-0.1577,-0.1638,-0.167,-0.1681,-0.1683,-0.1696,-0.1691,-0.168,-0.169,-0.1591,-0.1681,-0.1681,-0.1681,-0.168,-0.168,-0.1049,-0.1085,-0.1133,-0.1185,-0.1221,-0.1262,-0.1301,-0.1333,-0.1382,-0.1444,-0.1459,-0.1522,-0.1573,-0.1655,-0.1689,-0.174,-0.1735,-0.1752,-0.1757,-0.1761,-0.1764,-0.1669,-0.1751,-0.1751,-0.1751,-0.1751,-0.1751,0,-0.1116,-0.1148,-0.1196,-0.1256,-0.1298,-0.1303,-0.1352,-0.1388,-0.1443,-0.1488,-0.1535,-0.1605,-0.1664,-0.1708,-0.1769,-0.1803,-0.181,-0.1818,-0.1817,-0.1825,-0.1763,-0.1748,-0.1811,-0.1811,-0.1811,-0.1811,-0.1811,-0.1811,-0.1156,-0.1219,-0.1239,-0.132,-0.1352,-0.1413,-0.1441,-0.148,-0.1517,-0.1594,-0.1642,-0.167,-0.1717,-0.1782,-0.1837,-0.1849,-0.1872,-0.188,-0.1894,-0.1835,-0.1829,-0.1823,-0.1809,-0.1884,-0.1884,-0.1952,-0.1953,-0.1953]},{"header":{"parameterUnit":"m.s-1","parameterCategory":1,"la1":30.2991,"la2":30.254,"lo1":-89.0895,"lo2":-89.0444,"dy":0.0017,"dx":0.0017,"nx":28,"ny":28,"refTime":"2026-02-16T03:00:00:Z","depth":0,"parameterNumber":3,"parameterNumberName":"V-component_of_WINDS"},"data":[0,0,0,0,0,0,0,0,0,0,0,0,0,0,0,0,0,0,0,0,0,0,0,0,0,0,0,0,0,0,0,0,0,0,0,0,0,0,0,0,0,0,0,0,0,0,0,0,0,0,0,0,0,0,0,0,0,0,1.7582,1.7581,0,1.7543,1.7542,1.7542,1.7526,1.7526,1.7526,1.7526,1.7481,1.748,1.7479,0,0,0,0,0,0,0,0,0,0,0,0,0,1.7639,1.7638,1.7582,1.7581,1.7581,1.7543,1.7542,1.7542,1.7526,1.7526,1.7526,1.7526,1.7482,1.748,1.7478,0,0,0,0,0,0,0,0,0,0,0,0,0,1.7609,1.7638,1.7582,1.7568,1.7567,1.7543,1.7542,1.7542,1.7526,1.7526,1.7526,1.7526,1.7482,1.748,1.7478,1.7464,0,0,1.7472,1.7472,0,0,0,0,0,0,0,0,1.761,1.7606,1.7571,1.7569,1.7567,1.7539,1.7546,1.7515,1.7526,1.7541,1.7526,1.7526,1.75,1.7497,1.7489,1.7461,1.746,1.7472,1.7471,1.747,1.747,0,0,0,0,0,0,0,1.7612,1.7608,1.7566,1.757,1.7568,1.7563,1.7559,1.754,1.752,1.754,1.7538,1.7534,1.7499,1.7491,1.7488,1.7459,1.7472,1.7471,1.7469,1.7469,1.7418,1.7418,0,0,0,0,0,0,1.7617,1.761,1.7567,1.7565,1.759,1.7562,1.7557,1.7548,1.752,1.7516,1.7534,1.7534,1.7494,1.749,1.7486,1.7468,1.747,1.7468,1.7467,1.7419,1.7418,1.7418,0,0,0,0,0,0,1.7619,1.7614,1.7569,1.7587,1.7581,1.7561,1.7551,1.7547,1.7539,1.7516,1.7512,1.753,1.7494,1.7489,1.747,1.7466,1.7468,1.7466,1.7419,1.7418,1.7418,1.743,0,0,0,0,0,0,1.762,1.7614,1.7609,1.7587,1.758,1.7555,1.755,1.7546,1.7536,1.7535,1.7511,1.7507,1.7494,1.7473,1.7468,1.7463,1.7464,1.7419,1.7419,1.7418,1.743,1.743,1.7431,0,0,0,0,0,1.7622,1.7613,1.7609,1.7604,1.7574,1.7554,1.755,1.7537,1.7536,1.753,1.7516,1.7508,1.7467,1.7471,1.7465,1.746,1.7419,1.7419,1.7418,1.743,1.743,1.7431,0,0,0,0,0,0,1.7633,1.761,1.7605,1.7588,1.7574,1.7552,1.7544,1.7537,1.7521,1.7521,1.7503,1.7498,1.748,1.7468,1.7473,1.7445,1.7442,1.7441,1.7453,1.7453,1.7454,1.7457,1.7463,0,0,0,0,0,1.7634,1.7621,1.7601,1.7588,1.7581,1.7564,1.7555,1.7546,1.753,1.7523,1.7507,1.749,1.7474,1.7463,1.7446,1.7429,1.7423,1.7422,1.7422,1.7423,1.7421,1.7412,1.7411,1.7417,1.7417,1.7417,0,0,1.7634,1.762,1.7613,1.759,1.7578,1.7564,1.7559,1.7544,1.7534,1.752,1.7502,1.749,1.747,1.7452,1.7443,1.7441,1.7419,1.7422,1.7423,1.7421,1.7411,1.7411,1.741,1.7416,1.7417,1.7417,0,0,1.7629,1.7617,1.7605,1.7593,1.7575,1.7564,1.7562,1.7541,1.7533,1.7515,1.7505,1.7491,1.7463,1.745,1.7439,1.743,1.7422,1.7425,1.7426,1.7417,1.7417,1.7416,1.7413,1.7412,1.7424,1.7424,1.7424,0,1.7631,1.7612,1.76,1.7587,1.7577,1.7566,1.7553,1.7542,1.7519,1.7512,1.7511,1.7477,1.7462,1.7441,1.7439,1.7431,1.7427,1.7427,1.7418,1.7417,1.7417,1.7413,1.7412,1.7425,1.7425,1.7425,1.7425,0,1.7616,1.7603,1.7595,1.7576,1.7565,1.7552,1.7537,1.7528,1.752,1.7509,1.7491,1.7474,1.7454,1.7449,1.744,1.7426,1.7426,1.7422,1.7419,1.7417,1.7414,1.7412,1.7425,1.7425,1.7425,1.7425,0,0,1.7615,1.759,1.7587,1.7578,1.7558,1.7547,1.7534,1.7517,1.7509,1.7494,1.7482,1.746,1.7456,1.7444,1.7434,1.7426,1.7421,1.7423,1.7422,1.7423,1.7405,1.7408,1.7407,1.7416,1.7415,1.7415,1.7406,0,1.7606,1.7584,1.7573,1.7555,1.7542,1.7532,1.7521,1.7507,1.7496,1.7483,1.7471,1.7456,1.7452,1.7445,1.7437,1.7423,1.7417,1.7424,1.7403,1.7403,1.7408,1.7405,1.7408,1.74,1.7405,1.7405,1.7405,0,1.7593,1.758,1.7561,1.7544,1.7538,1.7528,1.7512,1.75,1.7484,1.7477,1.7465,1.7455,1.7441,1.744,1.7419,1.7424,1.7415,1.7407,1.7407,1.7404,1.7403,1.7401,1.7398,1.7396,1.7402,1.7403,1.7403,0,1.7594,1.7571,1.7557,1.755,1.7529,1.7523,1.7513,1.7498,1.7489,1.7474,1.7468,1.7451,1.7442,1.7428,1.7415,1.7416,1.7395,1.7393,1.7388,1.7389,1.7384,1.7384,1.7378,1.7379,1.7379,1.7379,1.7379,0,1.7586,1.7574,1.7558,1.7549,1.7536,1.7524,1.7511,1.7501,1.7487,1.7476,1.7466,1.7455,1.7438,1.7425,1.7414,1.7399,1.7394,1.7388,1.7385,1.7388,1.7389,1.7382,1.7382,1.7379,1.7379,1.7379,1.7379,0,1.7584,1.7573,1.7557,1.7539,1.7534,1.7526,1.751,1.7501,1.7491,1.7477,1.7472,1.7456,1.744,1.7426,1.7404,1.7397,1.7381,1.7378,1.7387,1.7385,1.7381,1.7382,1.737,1.7368,1.737,1.737,1.737,0,1.7579,1.7571,1.7553,1.7545,1.7537,1.7524,1.7515,1.7503,1.7494,1.7476,1.7469,1.7453,1.7439,1.7415,1.74,1.7384,1.7379,1.7376,1.7377,1.7381,1.7379,1.738,1.7379,1.7376,1.7376,1.7376,1.7376,0,1.7572,1.7567,1.7555,1.7541,1.7531,1.7519,1.7507,1.7501,1.7486,1.7476,1.7461,1.7451,1.743,1.7414,1.7397,1.7386,1.7379,1.7377,1.7375,1.7378,1.7384,1.738,1.7387,1.7377,1.7377,1.7377,1.7377,1.7377,1.7568,1.756,1.7547,1.7534,1.7524,1.7513,1.7504,1.7494,1.7481,1.7464,1.7458,1.7442,1.7427,1.7403,1.7393,1.738,1.7378,1.7375,1.7374,1.7374,1.7375,1.7387,1.7377,1.7377,1.7377,1.7377,1.7377,0,1.756,1.7552,1.754,1.7524,1.7514,1.751,1.7496,1.7488,1.7475,1.7462,1.745,1.7433,1.7417,1.7403,1.7387,1.7379,1.7375,1.7375,1.7375,1.7373,1.7377,1.738,1.7379,1.7379,1.7379,1.7379,1.7379,1.7379,1.7555,1.7541,1.7535,1.7517,1.7508,1.7494,1.7487,1.7477,1.7466,1.7448,1.7436,1.7428,1.7414,1.7397,1.7383,1.7379,1.7373,1.7374,1.7369,1.7373,1.7373,1.7373,1.7376,1.7373,1.7373,1.7366,1.7366,1.7366]}]]